Location: Hopville
(44.8032°N, 123.1329°W)
Time: 04:47:53
(UTC+00:00)

Cosmos 540 Rocket - Pass Details

Date: 24 January 2021
Orbit: 739 x 754 km, 74.1° (Epoch: 26 February)

Event Time Altitude Azimuth Distance (km) Brightness Sun altitude
Exits shadow 13:46:02 35° 241° (WSW) 1,198 4.1 -20.0°
Maximum altitude 13:47:51 51° 295° (WNW) 931 3.5 -19.7°
Drops below altitude 10° 13:52:52 10° 12° (NNE) 2,272 6.0 -18.8°
Sets 13:55:19 0° 18° (NNE) 3,202 6.8 -18.4°
